Temperature
8 7 8 8 8 8 8 8 8 8 8 8 8 8 8 8 8 8 8 8 8 8 8 7 7 7 7 7 7 7 7 7 7 7 7 7 7 7 7 7 7 7 7
7 7 7 7 7 7 8 8 8 8 7 7 7 7 7 7 7 7 7 7 7 7 7 7 7 7 7 7 7 7 7 7 7 6 6 6 6 7 7 7 7 7 6
7 7 7 7 7 7 7 7 7 7 7 7 7 7 7 6 6 6 7 7 6 6 6 6 6 6 6 6 6 6 6 6 6 6 6 6 6 5 6 6 6 6 6
7 6 7 7 7 7 7 7 7 7 7 6 6 6 6 6 6 6 6 6 6 6 6 6 6 6 6 6 6 6 6 6 5 5 5 5 5 5 5 5 5 5 5
6 6 6 6 6 6 6 6 6 6 6 6 6 6 6 6 5 5 5 5 6 6 6 6 5 5 5 5 5 5 5 5 5 5 5 4 4 4 4 4 4 4 4
5 5 6 6 6 6 6 6 6 6 6 6 6 5 5 5 5 5 5 5 5 5 5 5 5 5 5 5 5 5 5 4 4 4 4 4 4 4 4 3 3 3 4
5 5 5 5 5 5 5 5 5 5 5 5 5 5 5 5 4 4 4 4 4 4 4 4 4 4 4 4 4 4 4 4 4 3 3 3 3 3 3 3 3 3 3
4 4 4 5 5 5 5 5 5 5 5 5 5 5 4 4 4 4 4 4 4 4 4 4 4 4 4 4 4 3 3 3 3 3 3 3 3 3 3 2 2 2 2
4 4 4 4 4 4 4 4 4 4 4 4 4 4 4 4 4 3 3 3 3 3 3 3 3 3 3 3 3 3 3 3 3 3 3 2 2 3 2 2 2 2 2
3 3 3 4 4 4 4 4 4 4 4 4 4 4 4 4 3 3 3 3 3 3 3 3 3 3 3 2 2 2 2 2 2 2 2 2 2 2 2 2 1 1 1
3 3 3 3 3 3 3 3 3 3 3 3 3 3 3 3 3 3 3 3 2 2 2 2 2 2 2 2 2 2 2 2 2 2 1 1 1 1 1 1 1 1 1
3 3 3 3 3 3 3 3 3 3 3 3 3 3 3 3 3 2 2 2 2 2 2 2 2 2 2 2 1 1 1 1 1 1 1 1 1 1 1 1 1 0 0
3 2 2 2 2 2 2 2 2 2 2 2 2 2 2 2 2 2 2 2 2 2 2 1 1 1 1 1 1 1 1 1 1 1 1 0 0 0 0 0 -0 -0 -0
2 2 2 2 2 2 2 2 2 2 2 2 2 2 2 1 1 1 1 1 1 1 1 1 1 1 1 1 1 0 0 0 0 0 0 0 -0 -0 -0 -0 -1 -1 -1
2 2 2 1 1 1 1 1 1 1 1 1 1 1 1 1 1 1 1 1 1 1 1 1 0 0 0 0 0 -0 -0 -0 -0 -0 -0 -0 -0 -0 -1 -1 -1 -1 -1
1 1 1 1 1 1 1 1 1 1 1 1 1 1 0 0 0 0 0 0 0 0 -0 -0 -0 -0 -0 -0 -0 -0 -1 -1 -1 -1 -1 -1 -1 -1 -1 -1 -1 -1 -2
1 1 1 1 1 0 0 0 0 0 0 0 0 0 -0 -0 -0 -0 -0 -0 -0 -0 -0 -1 -1 -1 -1 -1 -1 -1 -1 -1 -1 -1 -1 -1 -1 -1 -1 -1 -2 -2 -2
1 1 1 0 0 -0 -0 -0 -0 -0 -0 -0 -0 -0 -1 -1 -1 -1 -1 -1 -1 -1 -1 -1 -1 -1 -1 -1 -1 -1 -1 -1 -2 -2 -2 -2 -2 -2 -2 -2 -2 -2 -2
0 0 0 0 -0 -0 -1 -1 -1 -1 -1 -1 -1 -1 -1 -1 -1 -1 -1 -1 -1 -1 -1 -2 -2 -2 -2 -2 -2 -2 -2 -2 -2 -2 -2 -2 -2 -2 -2 -2 -2 -2 -2
0 -0 -0 -0 -1 -1 -1 -1 -1 -1 -1 -1 -1 -1 -1 -1 -1 -2 -2 -2 -2 -2 -2 -2 -2 -2 -2 -2 -2 -2 -2 -2 -2 -3 -3 -3 -2 -2 -3 -3 -3 -3 -3
-0 -0 -0 -0 -1 -1 -1 -1 -1 -1 -1 -1 -1 -1 -2 -2 -2 -2 -2 -2 -2 -2 -2 -2 -3 -3 -2 -2 -3 -3 -3 -3 -3 -3 -3 -3 -3 -3 -3 -3 -3 -3 -3
-0 -1 -1 -1 -1 -1 -1 -1 -1 -2 -2 -2 -2 -2 -2 -2 -2 -2 -2 -3 -3 -3 -3 -3 -3 -3 -3 -3 -3 -3 -3 -3 -3 -3 -3 -3 -3 -3 -3 -3 -3 -3 -3
-1 -1 -1 -1 -1 -1 -2 -2 -2 -2 -2 -2 -2 -2 -2 -2 -3 -3 -3 -3 -3 -3 -3 -3 -3 -3 -3 -3 -3 -3 -3 -4 -4 -4 -4 -4 -4 -4 -4 -4 -4 -4 -4
-1 -1 -1 -2 -2 -2 -2 -2 -2 -2 -2 -2 -2 -3 -3 -3 -3 -3 -3 -3 -3 -3 -3 -3 -4 -4 -4 -4 -4 -4 -4 -4 -4 -4 -4 -4 -4 -4 -4 -4 -4 -4 -4
-2 -2 -2 -2 -2 -2 -2 -2 -2 -2 -3 -3 -3 -3 -3 -3 -3 -3 -3 -3 -3 -3 -4 -4 -4 -4 -4 -4 -4 -4 -4 -4 -4 -4 -4 -4 -4 -4 -4 -4 -4 -4 -4
-2 -2 -2 -2 -2 -2 -2 -2 -3 -3 -3 -3 -3 -3 -3 -4 -4 -4 -4 -4 -4 -4 -4 -4 -4 -4 -4 -4 -4 -4 -4 -4 -4 -4 -4 -4 -4 -4 -4 -4 -4 -4 -4
Wind_Speed
5 3 3 3 3 3 4 4 4 3 3 3 3 3 3 2 2 2 3 3 3 4 4 3 3 3 3 3 3 2 2 2 1 2 2 3 3 3 3 3 3 3 3
4 4 3 3 3 4 4 4 4 4 4 4 4 3 3 2 2 2 3 3 4 4 4 4 3 4 3 3 3 3 2 1 2 2 2 3 3 3 3 3 3 3 3
6 4 4 3 4 4 4 4 4 4 5 4 3 3 2 2 2 2 2 3 4 4 4 4 4 3 4 3 4 4 4 3 2 2 3 3 3 2 3 3 3 3 3
5 4 3 3 4 4 4 4 3 4 4 4 5 5 4 4 3 3 2 2 2 3 3 3 3 3 3 3 3 3 3 3 3 2 2 3 3 3 3 3 3 4 4
4 4 3 3 3 3 2 2 2 3 3 4 5 5 4 3 2 3 3 2 1 2 2 3 3 3 3 3 3 3 3 3 3 3 2 3 3 4 4 5 4 4 4
2 2 2 2 2 1 1 1 2 3 3 4 4 5 5 4 4 3 3 2 1 1 2 2 2 2 2 3 3 3 3 3 3 3 3 3 3 3 4 5 5 6 5
1 1 1 1 1 1 1 2 2 2 2 3 4 5 5 5 5 4 4 3 2 2 2 2 2 2 2 3 3 3 3 4 4 4 4 4 4 4 4 5 5 6 5
1 1 1 2 2 2 2 2 2 2 2 2 3 4 4 3 3 4 3 3 3 3 3 3 3 3 3 3 3 3 3 4 5 5 5 4 4 4 4 4 5 5 5
1 1 1 1 1 1 1 2 2 2 1 2 2 3 3 3 3 3 3 2 2 2 3 3 3 3 3 3 4 3 4 5 5 5 5 4 4 4 4 5 5 5 5
1 1 1 1 1 1 1 1 2 1 1 1 2 2 2 3 3 3 3 3 3 3 3 3 3 3 4 4 4 4 5 5 5 4 5 5 4 4 4 4 5 5 6
2 1 1 1 1 0 0 1 1 1 1 1 2 2 2 2 3 3 3 3 3 3 3 3 4 4 4 4 5 5 5 5 5 5 6 6 5 5 4 4 5 5 5
2 2 1 1 1 1 1 1 1 1 2 1 1 2 1 2 2 3 3 3 3 3 4 4 4 4 5 5 5 5 5 5 6 6 6 6 5 6 5 5 5 6 6
2 2 1 1 1 1 2 2 2 2 2 1 1 1 1 2 3 3 3 3 3 3 4 4 5 5 5 5 5 6 6 6 6 6 6 6 6 7 5 6 6 5 6
3 3 3 2 2 2 2 2 2 2 2 1 1 2 2 2 3 3 2 3 3 3 4 4 5 5 5 5 5 6 6 6 6 6 6 7 7 7 6 6 6 6 6
4 4 4 3 3 3 3 2 2 2 2 2 2 2 2 2 2 2 2 2 3 3 4 4 5 5 4 5 5 6 6 6 6 6 6 7 7 7 7 6 6 6 6
5 4 4 3 3 3 3 3 3 3 2 2 2 2 2 2 2 2 2 2 3 3 3 4 5 5 4 5 6 6 6 6 6 6 6 6 7 7 9 9 9 8 8
5 5 4 4 3 3 3 3 3 3 2 3 2 2 2 2 2 2 2 3 3 3 3 4 4 5 5 6 7 7 6 6 6 7 6 5 5 7 7 8 9 9 10
5 5 4 3 3 3 3 3 2 2 2 2 2 2 2 2 2 2 3 3 3 3 3 4 4 4 5 5 6 6 6 6 6 7 7 7 6 6 6 7 7 8 8
4 4 3 3 3 3 2 2 2 2 2 3 3 3 3 3 3 3 3 3 3 3 3 4 4 5 5 5 5 6 5 5 6 6 6 7 7 7 8 7 7 7 7
3 2 2 2 3 3 2 2 3 3 3 3 3 3 3 3 4 4 4 3 3 4 4 4 4 5 5 5 6 6 4 5 5 5 5 7 8 8 8 6 7 7 6
2 2 2 2 3 3 2 3 3 3 3 3 3 3 3 3 4 4 3 3 3 4 4 4 4 4 5 6 6 6 4 5 5 5 4 4 6 7 8 7 6 7 6
2 1 1 2 2 2 2 3 3 3 3 2 2 3 3 3 3 3 3 3 3 3 3 3 4 4 4 5 5 6 6 6 5 5 4 4 5 6 7 6 6 7 6
2 1 2 2 2 2 2 3 3 3 2 2 2 2 3 3 3 3 3 3 3 3 3 3 3 3 3 4 5 6 6 6 5 4 5 5 5 5 5 6 6 5 4
2 1 2 2 3 3 2 3 3 3 2 3 3 2 3 3 3 3 3 3 3 3 3 3 3 3 4 4 3 3 3 4 4 4 4 5 5 4 4 4 4 3 3
2 2 3 3 3 3 3 3 3 2 2 3 3 3 2 3 3 3 3 3 4 4 4 4 4 4 4 4 5 4 3 3 3 3 3 3 3 3 2 2 2 2 2
3 3 3 3 3 3 3 3 3 3 3 2 3 2 2 2 2 2 3 3 5 5 6 6 6 5 6 6 6 6 5 5 4 3 3 3 3 3 3 2 2 2 2
Wind_Direction
232 223 217 204 203 204 203 201 194 189 188 194 199 198 202 203 203 209 210 204 204 197 198 197 194 200 207 214 215 218 225 236 248 250 252 245 242 243 243 246 247 250 260
227 220 211 202 208 210 210 212 206 200 203 207 207 212 209 214 212 209 220 215 213 205 198 197 197 201 208 211 211 210 220 235 236 252 256 247 229 226 235 241 247 257 267
232 227 214 210 217 221 219 218 213 210 209 203 189 176 184 198 208 220 225 224 219 210 207 201 199 202 205 209 214 216 219 228 236 249 255 256 249 252 223 237 243 257 267
232 231 225 221 228 229 223 224 218 216 211 199 193 187 196 209 220 215 212 216 216 205 199 199 195 201 210 211 215 220 226 225 227 237 250 271 289 266 255 230 242 261 269
234 237 234 228 235 232 220 224 220 218 208 202 201 201 208 212 205 196 193 198 199 200 194 193 190 201 206 213 213 215 223 230 237 240 241 249 262 262 264 264 262 264 265
236 241 233 215 223 221 208 217 219 222 212 200 203 209 208 204 198 198 198 203 200 201 198 196 189 200 205 212 218 217 220 225 237 244 243 245 249 252 256 267 275 273 272
224 229 220 202 214 218 206 214 219 226 218 204 207 213 214 211 211 210 208 208 207 215 215 202 202 205 209 209 212 215 223 224 229 236 242 245 251 258 260 268 277 280 283
234 227 225 211 212 213 209 214 224 226 221 214 218 215 212 211 214 216 214 215 218 220 214 204 206 210 212 214 217 221 228 229 229 235 242 247 248 248 250 262 274 281 275
255 252 242 231 214 205 212 224 232 228 229 235 226 223 215 210 207 208 208 211 216 215 214 213 214 213 218 224 228 228 230 232 232 235 241 247 249 248 249 253 259 268 278
283 289 278 271 255 228 244 257 251 242 262 259 246 235 220 209 207 204 205 213 222 221 220 227 227 224 224 224 225 232 232 233 234 235 238 244 251 251 248 249 253 256 266
289 301 306 308 304 327 266 247 260 287 290 271 258 236 221 209 211 215 216 219 223 223 225 230 233 233 233 231 230 231 235 236 238 238 242 245 249 250 248 249 251 251 256
291 291 298 308 319 315 294 279 281 291 282 265 253 249 234 221 220 227 227 224 226 227 228 230 234 236 236 234 235 238 238 240 242 243 246 247 248 247 250 249 252 255 256
297 288 281 280 285 291 295 288 284 290 279 249 239 245 237 229 230 236 236 236 234 234 232 231 235 238 239 238 239 240 242 243 244 244 246 250 249 249 250 252 254 259 260
285 276 272 274 279 281 283 284 283 283 276 244 230 242 240 235 238 239 237 243 245 245 244 239 241 242 242 243 242 244 246 248 248 249 249 250 250 250 252 253 253 258 261
275 267 262 268 278 283 285 286 283 280 274 252 238 249 256 251 244 239 237 243 250 255 256 252 250 247 246 244 246 247 248 249 251 250 248 247 247 249 252 254 255 255 257
271 268 261 263 269 276 282 287 281 276 265 255 252 257 258 259 250 242 239 243 251 254 254 253 257 259 257 250 250 251 251 250 251 253 252 249 242 242 245 250 256 256 255
267 263 256 255 259 264 271 273 278 276 263 257 256 257 255 257 259 253 246 251 258 260 262 262 263 266 267 261 256 253 254 253 253 254 254 252 248 246 248 250 252 254 253
261 259 258 257 258 265 274 277 275 267 257 253 254 256 256 263 268 261 256 261 264 264 266 266 266 268 270 266 259 260 253 255 255 254 252 250 251 247 248 250 253 257 257
256 254 256 261 266 269 268 267 271 264 252 251 254 257 257 262 265 262 261 261 261 266 268 266 264 266 270 266 263 264 258 256 257 255 253 249 250 247 249 251 254 258 262
260 249 258 270 273 274 263 255 263 259 256 259 261 262 259 257 259 261 265 264 261 264 269 264 263 265 270 272 269 263 252 256 260 260 254 245 247 252 250 252 254 256 262
273 252 244 251 259 259 249 251 261 267 272 269 266 264 259 258 256 259 258 255 255 260 264 267 269 267 269 272 272 267 250 250 256 259 257 253 249 253 256 257 255 257 266
288 266 253 272 278 264 247 253 268 283 283 269 263 264 266 266 258 252 252 248 248 255 261 264 272 275 273 270 271 266 255 259 255 258 258 258 258 261 265 263 256 258 266
274 267 251 274 290 280 255 256 275 282 278 269 267 270 271 264 255 249 247 248 248 252 260 261 268 278 278 271 264 264 259 259 256 258 261 264 266 270 267 258 257 255 253
257 248 247 263 284 291 280 265 271 269 261 269 275 271 264 266 262 255 249 246 250 253 255 264 269 276 278 277 275 271 262 255 255 256 253 251 252 256 261 262 255 253 253
256 242 244 255 270 280 280 278 268 256 255 262 266 268 265 266 268 264 258 254 254 255 260 262 269 270 275 282 285 280 265 257 256 255 252 256 259 260 261 262 264 257 251
247 247 252 255 266 270 275 278 264 246 242 253 263 265 265 266 267 272 278 260 256 268 266 268 269 274 277 284 285 280 271 262 253 253 258 257 254 256 260 263 268 258 251
Height
1494 1494 1494 1494 1495 1495 1495 1496 1496 1497 1498 1498 1499 1500 1500 1501 1502 1503 1503 1504 1505 1505 1506 1507 1507 1508 1508 1509 1510 1510 1511 1511 1512 1512 1512 1511 1511 1511 1511 1511 1511 1510 1510
1491 1491 1491 1491 1491 1492 1492 1493 1493 1494 1495 1495 1496 1497 1497 1498 1498 1500 1500 1501 1501 1502 1503 1503 1504 1505 1506 1506 1507 1507 1508 1508 1508 1509 1509 1510 1510 1507 1507 1507 1507 1507 1506
1488 1488 1488 1488 1488 1489 1489 1489 1490 1491 1491 1492 1493 1494 1494 1495 1496 1496 1497 1497 1498 1499 1499 1500 1500 1501 1502 1503 1503 1504 1504 1505 1505 1506 1507 1507 1506 1505 1504 1504 1504 1503 1503
1484 1484 1485 1485 1486 1486 1486 1486 1487 1488 1488 1489 1489 1490 1490 1491 1492 1493 1493 1494 1494 1495 1495 1496 1497 1498 1499 1499 1500 1501 1501 1502 1502 1502 1502 1503 1503 1504 1502 1501 1501 1500 1500
1481 1481 1482 1482 1483 1483 1483 1483 1484 1485 1485 1486 1486 1487 1488 1488 1489 1489 1490 1491 1491 1492 1492 1493 1493 1494 1495 1496 1496 1497 1498 1498 1498 1499 1499 1499 1500 1500 1500 1498 1498 1497 1496
1478 1479 1479 1480 1480 1480 1481 1481 1482 1482 1482 1483 1483 1484 1484 1485 1485 1486 1486 1487 1488 1488 1488 1489 1490 1491 1491 1492 1493 1493 1494 1494 1495 1495 1495 1496 1496 1496 1496 1495 1494 1493 1492
1476 1476 1476 1476 1477 1477 1478 1478 1479 1479 1479 1479 1480 1481 1481 1482 1482 1483 1483 1484 1484 1485 1485 1485 1486 1487 1488 1488 1489 1490 1490 1491 1491 1492 1492 1492 1492 1492 1493 1492 1490 1489 1488
1474 1474 1474 1474 1475 1475 1475 1476 1476 1476 1476 1477 1477 1478 1479 1479 1479 1480 1480 1481 1481 1482 1482 1482 1483 1483 1484 1485 1485 1486 1486 1487 1488 1488 1488 1488 1488 1488 1488 1488 1488 1486 1484
1473 1473 1472 1472 1472 1472 1473 1473 1474 1474 1474 1474 1475 1475 1475 1476 1476 1477 1477 1478 1478 1479 1479 1479 1480 1480 1481 1481 1482 1482 1483 1483 1483 1483 1484 1484 1484 1484 1484 1484 1484 1484 1482
1472 1472 1471 1471 1471 1470 1471 1472 1472 1472 1472 1472 1472 1472 1472 1473 1473 1473 1474 1474 1475 1475 1476 1476 1476 1477 1477 1478 1478 1478 1479 1479 1479 1479 1480 1480 1480 1480 1480 1480 1480 1479 1479
1470 1470 1470 1469 1469 1469 1470 1470 1470 1469 1469 1469 1469 1469 1469 1470 1470 1470 1470 1471 1471 1472 1472 1473 1473 1474 1474 1474 1474 1475 1475 1475 1475 1475 1476 1476 1476 1476 1475 1475 1475 1475 1474
1469 1469 1468 1468 1468 1468 1468 1468 1467 1467 1467 1467 1467 1466 1466 1467 1467 1467 1468 1468 1468 1468 1469 1470 1470 1470 1470 1471 1471 1471 1471 1471 1471 1471 1471 1471 1472 1471 1471 1471 1470 1470 1469
1467 1467 1466 1466 1466 1466 1466 1465 1465 1465 1465 1464 1464 1464 1464 1464 1464 1464 1465 1465 1465 1465 1466 1466 1466 1466 1466 1467 1467 1467 1467 1467 1467 1467 1467 1467 1467 1467 1466 1466 1466 1465 1465
1465 1465 1464 1464 1464 1464 1463 1463 1463 1462 1462 1462 1462 1462 1461 1461 1462 1461 1462 1462 1462 1462 1462 1462 1462 1462 1462 1462 1462 1463 1462 1462 1462 1462 1462 1462 1462 1462 1462 1461 1461 1461 1461
1463 1463 1462 1462 1461 1461 1461 1460 1460 1460 1460 1459 1459 1459 1459 1459 1459 1458 1458 1459 1459 1459 1458 1458 1458 1458 1458 1458 1458 1458 1458 1457 1457 1457 1457 1457 1457 1457 1457 1457 1457 1457 1456
1460 1460 1459 1459 1459 1458 1458 1457 1457 1457 1457 1457 1457 1456 1456 1456 1456 1455 1455 1455 1455 1455 1455 1455 1454 1454 1454 1453 1454 1454 1453 1453 1452 1452 1452 1452 1452 1452 1452 1452 1452 1452 1452
1457 1457 1456 1456 1456 1456 1455 1455 1455 1454 1454 1454 1454 1453 1453 1453 1452 1452 1452 1452 1452 1451 1451 1451 1450 1450 1449 1449 1449 1449 1448 1448 1448 1447 1447 1447 1447 1447 1447 1447 1447 1447 1447
1454 1454 1453 1453 1453 1453 1453 1452 1452 1451 1451 1451 1450 1450 1450 1449 1449 1449 1449 1449 1448 1448 1447 1447 1446 1446 1445 1445 1445 1444 1444 1443 1443 1443 1443 1443 1443 1443 1443 1442 1442 1442 1442
1451 1451 1451 1451 1450 1450 1450 1449 1448 1448 1448 1447 1447 1447 1446 1446 1446 1446 1445 1445 1445 1444 1444 1443 1442 1442 1442 1442 1441 1441 1440 1440 1439 1439 1439 1438 1438 1439 1439 1438 1438 1438 1438
1448 1448 1448 1448 1448 1447 1447 1446 1445 1445 1445 1444 1444 1444 1443 1443 1443 1442 1442 1442 1441 1441 1440 1440 1439 1439 1438 1438 1437 1437 1437 1436 1435 1435 1435 1434 1434 1434 1434 1434 1434 1434 1433
1446 1446 1445 1445 1445 1445 1444 1443 1443 1442 1442 1442 1441 1440 1440 1440 1439 1439 1439 1439 1438 1438 1437 1436 1436 1435 1435 1434 1434 1433 1433 1432 1432 1431 1431 1430 1430 1431 1430 1430 1430 1430 1429
1443 1443 1443 1443 1443 1442 1442 1441 1440 1440 1439 1439 1438 1437 1437 1437 1437 1436 1436 1436 1435 1435 1434 1433 1432 1432 1431 1431 1430 1430 1429 1429 1429 1428 1427 1427 1427 1427 1427 1426 1426 1426 1426
1441 1441 1441 1441 1441 1440 1440 1439 1438 1437 1437 1436 1435 1435 1434 1434 1434 1433 1433 1433 1432 1431 1431 1430 1429 1429 1428 1427 1427 1426 1426 1425 1425 1424 1424 1424 1424 1424 1423 1423 1423 1423 1422
1439 1439 1439 1439 1438 1438 1437 1437 1436 1435 1434 1434 1433 1433 1432 1432 1431 1431 1430 1430 1429 1429 1428 1427 1426 1426 1425 1424 1424 1423 1422 1422 1422 1421 1421 1422 1421 1421 1420 1420 1420 1419 1419
1437 1437 1437 1436 1436 1436 1435 1435 1434 1433 1432 1431 1431 1430 1430 1429 1428 1428 1427 1427 1427 1426 1426 1425 1424 1423 1422 1422 1421 1421 1420 1419 1419 1419 1419 1419 1419 1418 1418 1417 1417 1416 1416
1434 1435 1435 1434 1434 1433 1433 1432 1432 1431 1430 1429 1428 1428 1427 1426 1426 1425 1424 1424 1424 1423 1422 1422 1421 1420 1420 1419 1419 1418 1417 1417 1417 1417 1416 1416 1415 1415 1415 1414 1414 1414 1413